Location: Buttermere
(51.3333°N, 1.5167°W)
Time: 13:30:02
(UTC+00:00)

Spot 2 Rocket - Pass Details

Date: 18 September 2020
Orbit: 758 x 771 km, 98.6° (Epoch: 25 October)

Event Time Altitude Azimuth Distance (km) Brightness Sun altitude
Exits shadow 21:28:19 63° 261° (W) 849 3.7 -28.3°
Drops below altitude 10° 21:33:18 10° 339° (NNW) 2,300 6.8 -28.8°
Sets 21:35:38 0° 343° (NNW) 3,231 7.7 -29.0°
